Probability
26 26 39 29 35 39 32 23 23 16 19 29 23 23 23 32 42 42 48 45 52 45 55 55 58 45 39 39 42 48 48 45 48 55 58 61 58 48 48 42 52 71 65
23 19 39 32 35 29 26 26 19 16 16 16 23 19 19 26 39 39 42 35 39 42 48 48 42 48 52 39 42 42 42 39 32 48 45 45 52 52 42 48 52 52 55
19 13 26 32 29 32 29 26 23 16 13 19 16 23 23 26 35 29 26 29 32 35 35 35 42 42 39 42 45 42 32 26 23 32 45 32 35 45 45 42 39 39 45
13 13 16 35 32 35 32 26 26 19 19 16 16 19 19 19 26 26 26 26 29 32 35 35 26 29 29 29 32 35 32 23 26 39 16 23 23 55 52 42 42 32 39
16 16 26 42 39 32 29 26 19 26 16 13 13 10 16 13 16 19 19 23 26 23 23 23 29 23 23 29 29 29 26 32 39 32 10 10 10 58 52 42 39 39 35
13 16 23 42 29 29 29 29 29 26 16 13 13 13 13 16 13 16 16 16 16 16 19 19 23 19 19 16 16 13 13 29 23 13 16 13 13 58 48 42 42 45 35
13 13 19 32 26 26 23 23 26 19 13 10 10 6 13 16 13 13 16 19 16 13 19 19 16 16 16 10 10 13 19 32 6 6 10 13 23 52 39 35 45 52 52
10 13 16 32 29 32 23 23 23 16 10 6 6 6 13 13 13 13 13 16 16 19 19 19 10 13 13 16 13 16 19 23 6 3 13 16 45 42 39 29 39 42 48
6 10 6 16 19 26 23 13 16 13 10 6 10 10 16 10 10 10 13 10 10 13 16 10 13 13 6 10 13 16 16 23 6 0 3 6 48 39 19 32 39 35 32
6 6 6 6 13 13 13 16 16 16 13 16 10 13 16 16 16 13 19 16 10 6 6 10 13 13 3 13 6 13 19 6 3 6 3 13 32 23 23 26 26 29 35
6 3 6 6 6 19 16 16 16 19 19 23 19 23 26 10 6 10 13 19 13 10 10 13 13 6 10 10 6 19 3 0 0 3 3 26 26 23 23 32 32 39 39
6 3 3 3 3 6 3 10 10 10 13 10 3 10 3 3 6 3 10 19 16 10 13 16 19 19 6 3 3 10 0 0 0 0 6 32 26 19 23 23 35 35 35
3 3 3 3 3 3 3 6 6 6 6 6 6 6 3 3 0 0 0 3 3 0 0 3 3 0 0 3 3 0 0 0 0 0 0 39 26 26 23 19 26 26 35
3 3 3 3 3 3 3 3 3 6 3 3 6 3 6 3 0 3 0 0 0 0 0 0 3 0 0 0 0 0 0 0 0 0 0 32 26 29 29 23 26 26 29
3 3 3 3 3 3 3 3 3 6 6 3 3 3 3 0 0 0 3 0 0 0 0 0 0 0 0 0 0 0 0 0 0 0 0 19 23 23 26 23 23 26 26
3 3 3 3 3 3 3 3 0 0 6 3 0 3 0 0 0 0 3 0 0 0 0 0 0 0 0 0 0 0 0 0 0 0 0 6 19 26 19 23 16 16 29
0 3 3 3 3 3 3 3 3 3 0 0 0 0 0 0 0 0 0 0 0 0 0 0 0 0 0 0 0 0 0 0 0 0 0 0 3 13 19 19 16 19 23
0 0 3 3 3 3 3 3 3 0 0 0 0 0 0 0 0 0 0 0 0 0 0 0 0 0 0 0 0 0 0 0 0 0 0 0 0 0 13 23 26 19 19
0 3 3 3 3 3 3 3 0 0 0 0 0 0 0 0 0 0 0 0 0 0 0 0 0 0 0 0 0 0 0 0 0 0 0 0 0 0 3 6 23 23 23
0 3 3 6 6 6 6 3 0 0 0 0 0 0 0 0 0 0 0 0 0 0 0 0 0 0 0 0 0 0 0 0 0 0 0 0 0 0 0 0 3 16 23
0 0 6 6 6 6 10 10 3 3 6 3 0 0 0 0 0 0 0 0 0 0 0 0 0 0 0 0 0 0 0 0 0 0 0 0 0 0 0 0 0 0 0
0 0 6 6 6 6 6 6 3 3 6 6 6 6 6 3 0 0 0 0 0 0 0 0 0 0 0 0 0 0 0 0 0 0 0 0 0 0 0 0 0 0 0
3 3 6 10 10 6 13 10 6 6 6 6 6 6 3 3 3 0 0 0 0 0 0 0 0 0 0 0 0 0 0 0 0 0 0 0 0 0 0 0 0 0 0
3 3 10 10 10 10 13 10 10 3 3 6 6 6 6 3 3 3 0 0 0 0 0 0 0 0 0 0 0 0 0 0 0 0 0 0 0 0 0 0 0 0 0
3 3 6 10 10 10 13 13 13 6 6 6 3 6 6 3 3 0 0 0 0 0 0 0 0 0 0 0 0 0 0 0 0 0 0 0 0 0 0 0 0 0 0
10 10 13 10 6 6 10 13 10 13 10 6 6 6 6 3 0 0 0 0 0 0 0 0 0 0 0 0 0 0 0 0 0 0 0 0 0 0 0 0 0 0 0
Height
5865 5865 5866 5866 5866 5866 5866 5866 5866 5866 5866 5866 5866 5865 5866 5866 5866 5866 5867 5867 5867 5867 5868 5868 5868 5868 5868 5869 5869 5869 5869 5869 5869 5869 5869 5869 5870 5871 5871 5872 5873 5874 5874
5864 5864 5865 5865 5865 5865 5865 5865 5865 5865 5865 5865 5865 5865 5865 5865 5865 5865 5866 5866 5866 5867 5867 5867 5867 5868 5868 5868 5868 5868 5869 5868 5868 5868 5868 5867 5868 5869 5870 5871 5872 5872 5873
5863 5864 5864 5864 5864 5864 5864 5864 5864 5864 5864 5864 5864 5864 5864 5864 5864 5864 5865 5865 5865 5866 5866 5866 5866 5867 5867 5867 5867 5868 5868 5868 5868 5867 5865 5864 5865 5867 5868 5869 5871 5871 5872
5862 5863 5863 5863 5863 5863 5863 5863 5863 5863 5863 5863 5863 5863 5863 5863 5863 5863 5864 5864 5864 5865 5865 5865 5865 5866 5866 5866 5866 5867 5867 5866 5866 5866 5864 5863 5864 5865 5867 5868 5869 5870 5870
5861 5861 5861 5861 5862 5862 5862 5862 5862 5862 5862 5862 5862 5862 5862 5862 5862 5862 5863 5863 5863 5863 5864 5864 5864 5864 5865 5865 5865 5865 5865 5865 5865 5865 5864 5864 5864 5865 5866 5867 5867 5868 5868
5860 5860 5860 5860 5860 5860 5860 5860 5860 5860 5860 5860 5861 5861 5861 5861 5861 5861 5862 5862 5862 5862 5862 5863 5863 5863 5863 5863 5864 5864 5864 5864 5864 5864 5864 5864 5864 5864 5864 5865 5865 5866 5866
5859 5859 5859 5859 5859 5859 5859 5859 5859 5859 5859 5859 5859 5859 5859 5860 5860 5860 5860 5861 5861 5861 5861 5861 5861 5861 5862 5862 5862 5862 5862 5862 5862 5862 5863 5863 5863 5863 5863 5863 5864 5864 5864
5858 5858 5858 5858 5858 5858 5858 5858 5858 5858 5858 5858 5858 5858 5858 5858 5859 5859 5859 5859 5859 5860 5860 5859 5860 5860 5860 5860 5860 5860 5860 5860 5860 5861 5861 5861 5861 5861 5861 5861 5862 5862 5862
5857 5857 5857 5857 5857 5857 5857 5857 5857 5857 5857 5857 5857 5857 5857 5857 5857 5857 5857 5857 5858 5858 5858 5858 5858 5858 5858 5858 5858 5858 5858 5858 5858 5858 5859 5859 5859 5859 5859 5859 5859 5860 5860
5855 5855 5855 5855 5855 5855 5855 5855 5855 5855 5855 5855 5855 5855 5855 5855 5855 5856 5856 5856 5856 5856 5856 5856 5856 5856 5856 5856 5856 5856 5856 5856 5856 5856 5856 5856 5856 5856 5856 5857 5857 5857 5857
5854 5854 5854 5854 5854 5854 5854 5854 5854 5854 5854 5854 5854 5854 5854 5854 5854 5854 5854 5854 5854 5853 5853 5853 5853 5853 5853 5853 5853 5853 5853 5853 5853 5854 5854 5854 5854 5854 5854 5854 5854 5854 5854
5853 5853 5852 5852 5853 5853 5852 5852 5853 5853 5852 5852 5852 5852 5852 5852 5852 5851 5851 5851 5851 5851 5851 5851 5851 5850 5850 5850 5850 5850 5850 5850 5850 5851 5851 5851 5851 5851 5851 5851 5851 5852 5852
5851 5851 5851 5851 5851 5851 5851 5851 5851 5851 5851 5851 5850 5850 5850 5850 5850 5849 5849 5849 5849 5849 5848 5848 5848 5848 5848 5848 5848 5847 5848 5848 5848 5848 5848 5848 5848 5848 5848 5848 5848 5849 5849
5850 5850 5850 5850 5850 5850 5849 5849 5849 5849 5849 5849 5849 5849 5848 5848 5848 5847 5847 5847 5846 5846 5846 5845 5845 5845 5845 5844 5844 5844 5844 5844 5845 5845 5845 5845 5845 5845 5845 5845 5845 5846 5846
5849 5848 5848 5848 5848 5848 5848 5848 5848 5847 5847 5847 5847 5846 5846 5846 5845 5845 5845 5844 5844 5843 5843 5842 5842 5842 5841 5841 5841 5841 5841 5841 5841 5841 5841 5841 5842 5842 5842 5842 5842 5842 5842
5847 5847 5847 5847 5847 5846 5846 5846 5846 5846 5845 5845 5845 5844 5844 5843 5843 5843 5842 5842 5841 5840 5840 5839 5839 5838 5838 5838 5837 5837 5837 5837 5837 5838 5838 5838 5838 5838 5838 5838 5839 5839 5839
5846 5845 5845 5845 5845 5845 5844 5844 5844 5843 5843 5843 5842 5842 5841 5841 5840 5840 5839 5839 5838 5837 5837 5836 5836 5835 5835 5834 5834 5834 5833 5833 5833 5834 5834 5834 5834 5834 5835 5835 5835 5836 5836
5843 5844 5843 5843 5843 5842 5842 5842 5841 5841 5841 5840 5840 5839 5839 5838 5838 5837 5836 5836 5835 5834 5834 5833 5832 5832 5831 5830 5830 5830 5830 5829 5830 5830 5830 5830 5831 5831 5831 5831 5831 5832 5833
5841 5841 5841 5841 5840 5840 5840 5840 5839 5839 5838 5838 5837 5836 5836 5835 5834 5834 5833 5833 5832 5831 5830 5829 5829 5828 5827 5826 5826 5826 5826 5826 5826 5826 5826 5826 5827 5827 5827 5828 5828 5829 5829
5839 5839 5838 5838 5838 5838 5838 5837 5837 5836 5836 5835 5834 5833 5832 5832 5831 5830 5830 5829 5828 5828 5827 5826 5825 5824 5823 5822 5822 5822 5822 5822 5822 5822 5822 5822 5822 5823 5823 5824 5825 5825 5826
5836 5836 5835 5835 5835 5835 5835 5834 5834 5833 5833 5832 5831 5830 5829 5828 5827 5827 5826 5825 5824 5824 5823 5822 5820 5820 5819 5818 5818 5818 5818 5818 5818 5818 5817 5817 5818 5819 5819 5820 5821 5822 5823
5833 5833 5833 5832 5832 5832 5831 5831 5830 5830 5829 5828 5827 5826 5826 5825 5824 5823 5822 5821 5820 5820 5819 5817 5816 5816 5815 5814 5814 5814 5814 5814 5814 5813 5813 5813 5814 5814 5815 5816 5817 5818 5819
5830 5830 5829 5829 5829 5828 5828 5827 5827 5826 5825 5825 5824 5823 5822 5821 5820 5819 5819 5818 5817 5816 5815 5813 5812 5812 5811 5811 5810 5810 5809 5809 5809 5809 5809 5809 5809 5810 5811 5811 5812 5813 5815
5826 5826 5826 5826 5825 5825 5824 5824 5824 5823 5822 5821 5820 5819 5818 5817 5816 5815 5814 5813 5812 5811 5810 5810 5809 5808 5807 5807 5806 5805 5805 5805 5805 5805 5805 5804 5804 5805 5806 5807 5807 5809 5810
5822 5822 5822 5822 5821 5821 5821 5820 5820 5819 5818 5817 5816 5815 5814 5813 5812 5811 5810 5809 5808 5807 5806 5805 5804 5804 5803 5802 5801 5801 5800 5800 5800 5800 5800 5800 5800 5800 5801 5802 5802 5804 5805
5818 5818 5818 5818 5818 5817 5817 5816 5816 5815 5814 5813 5812 5811 5810 5809 5808 5807 5806 5805 5804 5802 5801 5800 5800 5799 5798 5797 5797 5796 5796 5795 5795 5795 5795 5795 5795 5796 5796 5797 5798 5799 5800
Wind_Speed
5 5 5 5 4 4 5 5 4 4 4 3 3 3 4 4 4 5 5 5 5 5 4 4 4 4 4 3 3 2 3 3 4 4 5 5 6 6 5 5 5 5 6
6 6 5 5 5 5 5 5 5 4 4 4 4 4 4 5 5 5 6 6 5 5 5 5 5 6 6 5 4 4 4 4 5 5 6 7 7 7 6 7 6 6 7
6 5 6 6 6 6 6 5 5 5 5 5 5 5 6 5 6 6 6 6 6 6 6 6 6 7 7 6 6 6 6 6 6 6 7 7 7 8 8 8 7 7 7
6 6 6 7 7 7 6 6 6 6 5 5 5 5 5 5 5 6 6 6 6 6 6 6 6 7 7 7 7 7 7 7 7 7 6 6 7 8 8 9 9 8 8
6 7 7 7 7 7 7 7 7 6 6 6 6 5 6 6 5 5 6 6 6 6 6 6 6 7 7 7 7 8 8 7 7 8 7 7 8 8 9 10 10 10 10
7 7 7 7 7 7 7 7 7 7 7 7 7 7 7 6 6 6 6 6 7 7 7 7 7 8 8 8 8 8 9 9 9 9 9 9 9 9 10 10 10 11 11
7 7 7 7 7 7 8 7 7 7 7 7 7 7 7 7 7 6 7 7 7 8 8 8 8 9 9 9 10 11 11 11 10 10 10 10 10 10 10 11 11 11 11
7 7 8 8 8 7 7 7 7 6 6 6 7 7 8 8 7 7 7 8 8 8 9 9 9 10 10 10 11 11 11 11 11 11 11 12 12 12 12 12 12 12 12
7 7 7 8 8 8 7 7 7 7 7 8 7 8 8 8 8 8 8 9 9 9 10 10 11 11 11 11 11 12 12 12 12 12 12 12 12 12 12 13 13 13 13
7 7 7 7 8 8 8 8 8 8 8 9 8 8 8 8 8 7 8 9 9 10 11 11 12 13 13 13 13 13 13 13 13 13 12 13 13 13 13 13 13 14 14
6 7 7 7 7 8 8 8 8 9 9 9 9 9 9 9 9 9 9 9 10 11 11 12 13 14 14 14 14 14 14 14 14 13 13 13 13 13 14 13 13 14 14
7 6 7 7 7 7 8 8 8 9 9 9 9 9 10 9 9 10 10 11 11 11 12 12 12 13 13 14 14 14 14 14 15 14 14 14 14 14 14 14 14 14 14
7 7 7 7 7 8 8 8 9 9 9 9 9 10 10 10 10 10 10 11 12 12 12 13 13 13 13 14 14 14 14 14 15 15 15 15 15 14 15 15 15 14 14
7 7 7 7 8 8 8 9 9 9 9 9 10 10 11 11 11 11 10 11 11 12 12 13 13 14 14 14 15 15 15 15 15 16 15 15 15 15 15 15 15 15 14
7 7 8 8 8 8 8 8 8 9 9 9 10 10 10 11 11 11 11 11 11 12 12 13 13 14 14 14 15 15 16 16 15 16 16 16 15 15 15 15 15 15 14
8 8 8 8 8 8 9 9 8 9 9 9 10 10 11 12 12 12 12 12 13 13 13 13 13 14 14 14 15 15 15 15 15 16 16 16 16 16 15 15 15 15 15
8 8 8 9 9 9 9 10 10 10 10 11 11 12 12 12 13 14 13 14 14 14 14 14 14 14 15 15 14 14 15 15 15 15 15 16 16 15 15 15 15 14 14
9 9 9 9 10 10 10 11 11 11 11 12 12 13 14 14 14 15 14 14 14 14 14 15 15 14 15 15 15 15 15 15 15 15 16 15 16 16 16 15 14 14 14
11 10 11 11 11 11 11 12 12 12 13 13 14 14 15 15 15 15 15 15 15 15 15 15 16 15 15 15 15 15 15 15 15 16 15 15 15 16 16 16 15 14 14
12 12 13 13 13 12 13 13 13 13 13 14 15 15 15 16 16 15 15 15 15 15 15 16 16 16 16 16 16 16 16 15 15 16 15 15 15 16 16 16 15 14 13
13 14 14 13 13 14 14 14 14 14 14 15 15 16 16 16 16 16 16 16 16 16 16 17 17 17 16 16 16 15 15 16 15 15 15 15 14 15 15 15 15 14 14
14 14 14 13 14 14 14 15 15 15 16 16 16 16 16 16 16 16 16 16 16 16 17 17 16 16 15 15 15 15 15 15 15 15 15 14 15 15 15 15 15 14 15
14 15 15 15 15 15 15 16 16 16 15 16 16 16 16 16 16 16 17 17 17 17 17 16 16 16 15 16 15 15 15 15 15 15 15 15 15 15 15 16 15 16 15
16 16 15 16 16 16 16 15 16 16 16 16 16 16 16 17 17 17 17 17 17 17 17 17 16 16 16 16 16 16 16 16 15 15 15 15 15 15 15 15 16 16 16
16 16 16 16 16 17 16 16 17 17 17 17 17 17 18 18 18 18 18 18 18 19 18 18 17 17 17 17 17 17 17 16 16 15 15 15 14 14 14 14 15 16 17
17 17 17 17 17 17 17 18 18 18 18 18 18 18 18 18 18 18 18 19 19 19 18 18 18 18 18 18 18 17 17 17 17 16 16 15 14 15 14 14 15 15 15
Wind_Direction
263 266 264 267 274 282 274 276 266 263 268 265 265 254 257 256 250 245 241 238 240 238 236 239 242 246 252 253 254 266 276 272 268 266 259 257 252 246 243 237 244 245 249
267 265 262 266 272 276 276 274 271 267 266 265 264 256 262 259 257 250 244 245 245 241 243 246 247 252 254 256 255 262 272 278 273 274 270 262 252 245 242 244 251 255 254
272 272 267 267 268 272 278 278 276 272 276 268 267 264 264 268 266 253 248 248 251 246 248 248 248 254 257 258 262 264 268 274 277 276 276 266 253 246 247 251 255 260 257
278 280 276 270 270 271 274 275 276 274 272 272 273 272 270 273 270 258 249 254 256 253 255 250 251 253 255 258 263 267 268 273 276 277 275 266 252 249 252 255 257 260 260
277 274 271 269 271 272 270 269 270 272 270 269 269 271 272 275 274 260 254 258 260 259 258 257 259 259 261 262 265 268 268 272 274 271 270 261 257 258 258 259 260 261 263
272 271 270 269 272 275 274 273 270 269 270 269 269 270 272 272 278 268 263 265 268 264 263 265 265 265 268 267 267 268 269 273 271 269 268 264 262 265 265 263 263 265 265
272 271 270 267 270 272 275 274 272 270 269 270 271 271 267 266 271 270 265 267 270 269 270 271 271 269 268 269 268 269 270 272 269 268 268 268 269 270 268 266 263 265 266
273 272 270 269 274 273 271 271 273 272 272 277 274 272 269 267 266 269 271 268 269 271 270 272 272 272 271 270 271 273 273 272 272 271 271 270 270 271 271 270 267 267 268
276 277 274 271 276 276 275 274 273 273 273 275 277 274 273 271 268 273 274 270 269 271 271 272 272 273 273 273 274 274 273 272 273 273 273 272 272 272 274 271 268 270 269
281 281 277 274 273 275 275 276 274 274 276 278 278 277 274 275 276 281 280 277 275 273 274 275 274 274 274 273 273 273 272 272 272 271 270 271 272 274 273 273 271 270 269
287 283 281 275 274 275 277 278 278 277 279 279 277 276 278 279 280 283 281 279 278 276 275 275 275 274 274 274 274 274 273 270 268 270 272 272 272 272 272 273 274 275 273
285 287 286 280 279 279 279 280 279 278 279 278 276 276 279 280 280 284 283 280 279 278 277 277 278 277 276 275 275 275 274 272 268 269 272 272 272 271 271 271 271 273 275
283 285 286 285 285 283 281 281 279 278 278 278 277 278 281 281 281 285 287 286 281 278 278 278 277 278 277 276 275 275 274 273 271 271 270 271 272 273 272 271 270 271 273
285 290 292 292 289 288 286 283 280 277 278 279 279 280 283 284 282 286 289 292 286 282 281 280 277 275 275 276 276 274 272 272 272 272 271 271 273 273 273 273 270 270 271
283 286 288 291 291 291 290 285 282 279 280 280 279 280 283 286 286 288 292 293 291 287 285 283 282 280 278 278 277 274 272 270 273 272 272 273 274 274 273 273 274 271 270
280 283 285 290 291 294 294 292 288 285 284 284 282 284 285 285 288 292 292 293 294 292 290 287 286 284 284 282 281 279 277 275 274 274 274 273 273 272 272 273 273 272 270
278 280 281 285 290 292 294 292 289 287 286 286 287 288 289 289 289 290 294 293 293 291 290 289 290 287 285 283 282 280 279 276 274 274 273 271 271 270 272 271 273 272 271
272 274 278 284 287 288 292 292 291 290 288 286 287 289 289 289 288 289 293 293 293 292 292 292 292 290 286 283 282 280 278 277 277 274 272 270 269 268 268 269 268 270 270
275 277 279 281 283 283 287 290 292 291 290 289 289 289 289 289 289 289 291 291 290 291 291 291 290 290 289 284 280 278 277 278 277 275 272 269 267 268 267 266 267 269 267
278 281 282 281 281 281 285 287 289 288 289 290 289 289 290 290 290 290 290 292 292 292 291 291 292 290 290 288 286 283 280 278 279 276 272 269 268 265 265 266 266 266 264
278 280 281 283 285 283 285 285 285 287 289 290 291 291 292 293 293 293 292 292 293 292 291 291 292 293 292 291 289 287 284 282 282 280 275 270 268 265 265 266 266 262 262
280 280 279 281 283 286 284 283 285 289 292 294 294 294 296 296 296 294 295 294 293 293 292 291 291 291 290 291 290 289 286 283 281 282 279 276 270 265 264 264 263 261 259
280 281 282 284 286 288 288 289 287 289 292 294 296 296 297 296 294 293 294 293 292 291 291 289 288 287 286 288 290 290 287 283 279 279 279 276 272 267 264 262 261 260 261
280 278 280 282 282 283 286 288 287 290 292 293 294 296 297 296 294 294 294 294 292 291 290 288 286 287 286 287 289 288 286 284 280 278 276 275 272 269 264 265 265 262 260
279 279 280 280 280 281 284 286 286 286 289 293 294 295 295 295 293 292 294 294 292 290 289 288 286 287 286 285 286 287 285 284 281 278 276 274 273 270 267 266 263 262 260
278 280 282 280 280 281 283 284 285 286 290 292 295 296 295 294 294 294 293 294 293 291 289 288 287 286 285 285 284 285 285 282 280 278 277 273 270 269 266 264 264 263 262